Lid_Strength_Index
-1 -1 -1 -1 -1 0 0 1 0 0 -1 -1 0 2 2 2 2 4 7 4 2 1 1 4 4 4 3 5 5 5 11 13 12 11 11 9 9 8 7 8 8 8 8 7 5
-2 -2 -2 -1 -1 -0 1 1 0 -0 -1 -0 0 2 2 2 5 6 2 1 1 1 4 5 7 5 7 6 6 8 11 11 9 9 10 9 8 8 9 9 8 8 6 5 4
-2 -2 -2 -1 -0 -0 0 1 1 -0 -1 -0 1 2 2 4 8 7 1 1 2 3 5 6 6 7 8 7 8 8 11 9 8 8 7 9 9 7 9 10 8 9 7 5 5
-2 -2 -0 0 1 0 1 2 1 -1 -1 0 1 2 3 6 14 5 1 1 3 3 5 6 6 7 9 10 7 11 8 7 7 7 7 8 7 9 8 8 6 6 6 5 6
-1 -1 0 1 1 1 2 1 0 -0 1 1 2 2 4 7 8 3 1 1 2 3 5 6 7 8 10 8 8 9 8 7 6 7 7 7 8 8 8 6 6 5 5 6 6
-0 0 0 0 1 2 1 0 0 1 1 1 2 2 5 9 3 1 1 1 2 3 4 5 6 6 8 8 8 7 7 7 7 7 7 8 8 7 7 6 6 6 6 6 6
0 1 1 1 0 0 0 0 0 1 1 2 3 3 6 6 1 0 1 2 1 2 4 3 4 6 7 8 6 7 9 8 8 7 8 7 10 9 7 6 7 7 7 6 5
1 1 1 1 0 0 1 1 1 1 2 2 2 3 7 2 1 2 2 2 1 1 1 1 2 4 6 5 7 9 9 14 8 7 7 8 13 8 6 7 8 7 6 5 5
2 1 1 1 1 1 0 0 0 1 1 1 3 4 8 2 4 3 3 5 4 2 1 1 3 6 6 9 11 10 15 14 11 7 8 8 12 8 6 7 8 7 7 6 5
1 1 1 1 1 1 1 1 1 1 3 3 4 7 6 7 5 4 3 3 4 3 4 5 6 9 9 12 17 15 15 13 12 9 9 10 10 9 8 8 9 9 8 7 6
1 1 2 1 1 2 2 3 5 6 6 8 8 8 7 5 3 4 3 4 4 5 9 6 11 12 10 9 9 10 11 13 10 8 9 11 12 10 9 9 9 9 8 8 7
1 2 2 2 1 1 3 6 6 6 9 6 6 6 5 4 7 5 3 7 7 10 7 9 12 8 7 8 9 10 12 12 10 9 10 11 12 10 9 8 8 8 9 8 7
2 2 2 2 2 2 5 5 3 3 8 8 7 7 7 5 8 7 5 6 8 10 9 11 9 7 8 9 10 10 12 12 12 10 11 12 13 12 10 8 8 8 8 7 7
2 2 2 2 4 3 5 3 3 3 12 11 9 7 6 6 8 5 4 6 8 10 9 10 7 9 9 10 9 13 9 10 11 12 17 11 18 14 10 10 9 8 9 7 8
2 2 2 3 3 4 4 3 3 5 19 10 9 5 6 8 8 7 4 7 10 10 10 11 10 10 11 10 8 11 9 11 11 13 14 14 17 14 10 12 10 9 8 9 9
2 2 3 3 3 4 3 3 5 13 19 12 9 9 9 8 8 7 7 7 8 10 10 10 8 9 10 9 8 8 10 11 11 13 19 14 15 15 14 12 11 10 9 9 9
3 3 4 4 6 3 3 6 14 17 11 13 12 10 11 11 10 10 11 12 14 17 16 11 11 9 8 11 9 10 13 19 20 20 20 13 15 15 11 10 11 11 10 10 9
3 4 3 4 3 3 4 10 17 14 13 10 11 11 13 12 11 11 13 15 13 14 16 17 18 12 10 11 12 12 12 18 23 22 19 13 17 15 10 9 10 9 10 9 9
4 4 4 4 3 3 7 14 14 13 11 12 11 14 13 12 13 13 14 15 14 14 17 17 16 11 11 11 11 12 15 11 15 16 19 16 14 12 10 11 11 11 10 9 9
6 5 5 4 4 5 9 12 12 10 10 11 15 14 16 15 15 15 16 14 14 13 13 14 19 13 12 11 11 13 11 16 15 22 22 17 17 17 14 12 12 12 11 10 10
6 8 6 4 5 8 13 12 11 10 10 12 13 14 14 15 15 16 16 14 13 13 13 14 16 16 14 15 16 15 15 14 16 16 22 22 18 12 12 12 12 12 11 10 10
8 10 6 5 9 10 11 11 11 10 10 11 12 13 14 15 16 16 16 15 13 14 15 14 17 20 16 13 13 14 16 15 20 19 18 20 19 10 10 11 11 11 10 11 10
11 10 7 7 12 11 11 11 11 11 11 12 12 12 12 14 17 15 15 12 13 14 16 14 18 23 20 18 15 17 15 15 16 19 19 22 18 10 10 9 9 11 11 10 10
11 13 10 10 12 13 14 13 13 11 12 11 12 13 14 15 14 16 15 13 13 13 12 13 18 20 22 19 18 18 17 15 17 22 20 18 16 13 12 10 10 10 11 11 10
11 12 13 15 13 14 14 14 15 15 13 12 14 14 15 17 16 16 15 15 13 12 14 16 23 19 18 16 16 17 18 16 19 18 22 18 18 15 14 13 12 11 11 10 10
13 13 13 13 13 14 15 16 15 15 15 15 16 14 14 17 16 18 16 17 17 15 16 15 22 21 24 18 17 18 17 16 16 16 17 17 17 13 12 13 13 11 10 10 10
11 11 13 13 14 15 14 14 14 14 14 14 15 16 16 15 15 15 15 15 16 17 17 18 20 22 22 19 20 23 19 17 16 15 15 18 15 13 14 12 12 11 10 10 9